Whitefield, NH

6:28 AM EDT on April 28, 2017 (GMT -0400)
Mount Washington Regional

Weather History for KHIE - March, 2014

Change the Weather History Date:

Tuesday, March 18, 2014

  Actual Average Record
Temperature  
Mean Temperature 12 °F -  
Max Temperature 36 °F 34 °F 75 °F (2012)
Min Temperature -13 °F 13 °F -13 °F (2014)
Degree Days  
Heating Degree Days 54    
Moisture  
Dew Point -8 °F    
Average Humidity 51    
Maximum Humidity 80    
Minimum Humidity 13    
Precipitation  
Precipitation 0.00 in - - ()
Sea Level Pressure  
Sea Level Pressure 30.32 in    
Wind  
Wind Speed 10 mph (ESE)    
Max Wind Speed 12 mph    
Max Gust Speed -    
Visibility 9 miles    
Events      
Averages and records for this station are not official NWS values.
T = Trace of Precipitation, MM = Missing Value Source: NWS Daily Summary

Daily Weather History Graph

Daily Weather History Graph

Search for Another Location

Airport or City:

Trip Planner

Search our weather history database for the weather conditions in past years. The results will help you decide how hot, cold, wet, or windy it might be!

Date:

Astronomy

Mar. 18, 2014 Rise Set
Actual Time 6:53 AM EDT 6:56 PM EDT
Civil Twilight 6:24 AM EDT 7:25 PM EDT
Nautical Twilight 5:50 AM EDT 7:58 PM EDT
Astronomical Twilight 5:15 AM EDT 8:33 PM EDT
Moon 9:16 PM EDT (3/18) 7:35 AM EDT (3/18)
Length of Visible Light 13h 00m
Length of Day
12h 03m
Waning Gibbous, 96% of the Moon is Illuminated
Mar 18
Waning Gibbous
Mar 23
Last Quarter
Mar 30
New
Apr 7
First Quarter
Apr 15
Full

Hourly Weather History & Observations

Time (EDT) Temp. Windchill Dew Point Humidity Pressure Visibility Wind Dir Wind Speed Gust Speed Precip Events Conditions
12:52 AM -6.0 °F -23.6 °F -11.9 °F 75% 30.22 in 10.0 mi East 10.4 mph - N/A   Clear
1:52 AM -8.0 °F -26.1 °F -14.1 °F 75% 30.25 in 10.0 mi East 10.4 mph - N/A   Clear
2:52 AM -9.9 °F -27.5 °F -16.1 °F 74% 30.26 in 10.0 mi ESE 9.2 mph - N/A   Clear
3:52 AM -11.0 °F -28.8 °F -17.0 °F 75% 30.27 in 10.0 mi ESE 9.2 mph - N/A   Clear
4:52 AM -11.9 °F -29.9 °F -18.0 °F 74% 30.27 in 9.0 mi ESE 9.2 mph - N/A   Clear
5:52 AM -13.0 °F -32.4 °F -18.9 °F 75% 30.29 in 5.0 mi ESE 10.4 mph - N/A   Haze
6:52 AM -13.0 °F -32.4 °F -18.9 °F 75% 30.32 in 5.0 mi East 10.4 mph - N/A   Haze
7:52 AM -9.9 °F -27.5 °F -16.1 °F 74% 30.33 in 6.0 mi ESE 9.2 mph - N/A   Haze
8:52 AM -0.0 °F -17.1 °F -7.1 °F 72% 30.36 in 10.0 mi ESE 11.5 mph - N/A   Clear
9:52 AM 9.0 °F -5.1 °F -4.0 °F 56% 30.37 in 7.0 mi ESE 10.4 mph - N/A   Clear
10:52 AM 18.0 °F 6.1 °F -2.0 °F 41% 30.35 in 10.0 mi ESE 10.4 mph - N/A   Clear
11:52 AM 24.1 °F 14.4 °F -8.0 °F 24% 30.34 in 10.0 mi ESE 9.2 mph - N/A   Clear
12:52 PM 27.0 °F 17.3 °F -15.0 °F 15% 30.32 in 10.0 mi ESE 10.4 mph - N/A   Clear
1:52 PM 30.0 °F 22.4 °F -8.0 °F 19% 30.32 in 10.0 mi SE 8.1 mph - N/A   Clear
2:52 PM 32.0 °F 25.6 °F -11.0 °F 15% 30.32 in 10.0 mi East 6.9 mph - N/A   Clear
3:52 PM 36.0 °F 28.0 °F -11.9 °F 13% 30.31 in 10.0 mi East 11.5 mph - N/A   Clear
4:52 PM 35.1 °F 27.9 °F -8.0 °F 16% 30.31 in 10.0 mi ESE 9.2 mph - N/A   Clear
5:52 PM 35.1 °F 27.9 °F -9.0 °F 15% 30.32 in 10.0 mi ESE 9.2 mph - N/A   Clear
6:52 PM 30.9 °F 23.5 °F -6.0 °F 20% 30.34 in 10.0 mi ESE 8.1 mph - N/A   Clear
7:52 PM 23.0 °F 11.7 °F 5.0 °F 46% 30.35 in 6.0 mi ESE 11.5 mph - N/A   Haze
8:52 PM 19.0 °F 6.8 °F 7.0 °F 59% 30.36 in 10.0 mi ESE 11.5 mph - N/A   Clear
9:52 PM 16.0 °F 2.9 °F 7.0 °F 68% 30.36 in 10.0 mi ESE 11.5 mph - N/A   Clear
10:52 PM 12.9 °F -0.2 °F 5.0 °F 71% 30.34 in 10.0 mi ESE 10.4 mph - N/A   Clear
11:52 PM 9.0 °F -5.9 °F 3.9 °F 80% 30.34 in 10.0 mi ESE 11.5 mph - N/A   Clear